M I D A S
Marine Information and Data Acquisition System
Tripno 2000 of the Zeeleeuw from 2010-12-07 07:11:42 to 2010-12-07 15:12:22
Back to CruiseResearch ActivitiesStationsMapUnderway DataData graphs

EquipmentUnitsComments
TimeDGPSUTC
LatitudeDGPSDM.mWGS84
LongitudeDGPSDM.mWGS84
SpeedMeteo Stationm/sRelative wind speed
DirectionMeteo StationdegRelative wind direction
TemperatureMeteo Stationdeg CelciusAir temperature
PressureMeteo StationPaAtmospheric pressure
HumidityMeteo Station%Relative humidity
Missing or incorrect values are displayed as -999
Metereological data collected by the RV Zeeleeuw from 2010-12-07 07:20:27 to 2010-12-07 15:10:41
                                                                                    Next 1000 lines
Time Latitude Longitude Speed Direction Temperature Pressure Humidity
2010-12-07 07:20:37 51°13.66 2°55.958 -999 307 -2.4 100410 41
2010-12-07 07:20:42 51°13.659 2°55.958 -999 315 -2.4 100410 42
2010-12-07 07:20:47 51°13.659 2°55.958 -999 307 -2.4 100410 42
2010-12-07 07:20:52 51°13.659 2°55.958 -999 321 -2.4 100410 42
2010-12-07 07:20:57 51°13.659 2°55.958 -999 307 -2.4 100410 42
2010-12-07 07:21:02 51°13.659 2°55.958 -999 324 -2.4 100420 42
2010-12-07 07:21:07 51°13.659 2°55.958 -999 307 -2.4 100420 42
2010-12-07 07:21:12 51°13.659 2°55.958 -999 318 -2.4 100420 42
2010-12-07 07:21:17 51°13.659 2°55.958 -999 307 -2.4 100420 42
2010-12-07 07:21:22 51°13.659 2°55.958 -999 323 -2.4 100410 42
2010-12-07 07:21:27 51°13.659 2°55.958 -999 323 -2.4 100410 42
2010-12-07 07:21:32 51°13.659 2°55.958 -999 325 -2.5 100410 42
2010-12-07 07:21:37 51°13.659 2°55.959 -999 331 -2.5 100410 42
2010-12-07 07:21:42 51°13.66 2°55.959 -999 333 -2.5 100410 42
2010-12-07 07:21:47 51°13.66 2°55.959 -999 337 -2.5 100410 42
2010-12-07 07:21:52 51°13.661 2°55.958 -999 339 -2.5 100410 42
2010-12-07 07:21:57 51°13.661 2°55.956 -999 333 -2.5 100410 42
2010-12-07 07:22:02 51°13.662 2°55.952 -999 329 -2.5 100410 42
2010-12-07 07:22:07 51°13.663 2°55.948 -999 307 -2.5 100410 42
2010-12-07 07:22:12 51°13.664 2°55.942 -999 321 -2.5 100410 42
2010-12-07 07:22:18 51°13.666 2°55.934 -999 307 -2.5 100410 42
2010-12-07 07:22:24 51°13.668 2°55.926 -999 322 -2.5 100410 42
2010-12-07 07:22:29 51°13.67 2°55.918 -999 307 -2.5 100410 42
2010-12-07 07:22:35 51°13.673 2°55.908 -999 22 -2.5 100410 42
2010-12-07 07:22:41 51°13.674 2°55.898 -999 307 -2.5 100410 42
2010-12-07 07:22:45 51°13.676 2°55.892 -999 22 -2.5 100410 42
2010-12-07 07:22:51 51°13.678 2°55.881 -999 307 -2.5 100410 42
2010-12-07 07:22:56 51°13.68 2°55.872 -999 318 -2.5 100420 42
2010-12-07 07:23:01 51°13.681 2°55.863 -999 338 -2.5 100420 42
2010-12-07 07:23:06 51°13.682 2°55.853 -999 338 -2.5 100410 42
2010-12-07 07:23:11 51°13.683 2°55.844 -999 338 -2.5 100410 42
2010-12-07 07:23:16 51°13.684 2°55.835 -999 339 -2.5 100410 41
2010-12-07 07:23:21 51°13.686 2°55.826 -999 339 -2.5 100410 41
2010-12-07 07:23:25 51°13.686 2°55.818 -999 339 -2.5 100410 42
2010-12-07 07:23:31 51°13.687 2°55.808 -999 339 -2.5 100410 42
2010-12-07 07:23:36 51°13.688 2°55.799 -999 340 -2.5 100420 42
2010-12-07 07:23:41 51°13.688 2°55.791 -999 5 -2.5 100420 42
2010-12-07 07:23:45 51°13.688 2°55.784 -999 5 -2.5 100420 42
2010-12-07 07:23:50 51°13.688 2°55.776 -999 16 -2.5 100420 42
2010-12-07 07:23:55 51°13.688 2°55.769 -999 16 -2.5 100420 42
2010-12-07 07:24:01 51°13.687 2°55.76 -999 16 -2.5 100420 42
2010-12-07 07:24:05 51°13.687 2°55.755 -999 15 -2.5 100420 42
2010-12-07 07:24:10 51°13.686 2°55.749 -999 14 -2.5 100420 42
2010-12-07 07:24:15 51°13.686 2°55.743 -999 8 -2.5 100420 42
2010-12-07 07:24:20 51°13.685 2°55.739 -999 5 -2.5 100420 42
2010-12-07 07:24:25 51°13.685 2°55.737 -999 4 -2.5 100410 42
2010-12-07 07:24:29 51°13.685 2°55.737 -999 8 -2.5 100410 42
2010-12-07 07:24:34 51°13.685 2°55.736 -999 10 -2.5 100420 42
2010-12-07 07:24:39 51°13.686 2°55.735 -999 13 -2.5 100420 42
2010-12-07 07:24:44 51°13.686 2°55.735 -999 7 -2.6 100410 42
2010-12-07 07:24:49 51°13.687 2°55.734 -999 7 -2.6 100410 42
2010-12-07 07:24:54 51°13.688 2°55.734 -999 5 -2.6 100410 42
2010-12-07 07:24:59 51°13.689 2°55.734 -999 5 -2.6 100410 42
2010-12-07 07:25:03 51°13.69 2°55.734 -999 6 -2.6 100410 42
2010-12-07 07:25:09 51°13.691 2°55.734 -999 15 -2.6 100410 42
2010-12-07 07:25:13 51°13.692 2°55.733 -999 19 -2.6 100410 42
2010-12-07 07:25:18 51°13.694 2°55.733 -999 15 -2.6 100410 42
2010-12-07 07:25:23 51°13.695 2°55.733 -999 20 -2.6 100410 42
2010-12-07 07:25:28 51°13.698 2°55.732 -999 22 -2.6 100410 42
2010-12-07 07:25:33 51°13.7 2°55.732 -999 18 -2.6 100410 42
2010-12-07 07:25:37 51°13.701 2°55.731 -999 23 -2.6 100410 42
2010-12-07 07:25:42 51°13.704 2°55.73 -999 23 -2.7 100410 42
2010-12-07 07:25:47 51°13.706 2°55.728 -999 24 -2.7 100410 42
2010-12-07 07:25:52 51°13.709 2°55.727 -999 25 -2.6 100410 41
2010-12-07 07:25:57 51°13.711 2°55.725 -999 28 -2.6 100410 41
2010-12-07 07:26:02 51°13.714 2°55.723 -999 26 -2.7 100410 42
2010-12-07 07:26:07 51°13.716 2°55.721 -999 22 -2.7 100410 42
2010-12-07 07:26:12 51°13.719 2°55.718 -999 19 -2.7 100410 42
2010-12-07 07:26:17 51°13.723 2°55.714 -999 26 -2.7 100410 42
2010-12-07 07:26:22 51°13.726 2°55.711 -999 20 -2.7 100410 42
2010-12-07 07:26:27 51°13.73 2°55.708 -999 15 -2.7 100410 42
2010-12-07 07:26:32 51°13.734 2°55.704 -999 8 -2.7 100410 42
2010-12-07 07:26:37 51°13.738 2°55.701 -999 24 -2.7 100410 42
2010-12-07 07:26:41 51°13.741 2°55.698 -999 20 -2.7 100410 42
2010-12-07 07:26:47 51°13.748 2°55.694 -999 19 -2.7 100410 42
2010-12-07 07:26:52 51°13.753 2°55.689 -999 8 -2.7 100410 42
2010-12-07 07:26:57 51°13.758 2°55.683 -999 353 -2.7 100410 42
2010-12-07 07:27:01 51°13.763 2°55.678 -999 355 -2.7 100410 42
2010-12-07 07:27:07 51°13.769 2°55.671 -999 351 -2.7 100410 42
2010-12-07 07:27:12 51°13.774 2°55.664 -999 354 -2.7 100410 42
2010-12-07 07:27:17 51°13.78 2°55.658 -999 356 -2.7 100410 42
2010-12-07 07:27:21 51°13.785 2°55.653 -999 356 -2.7 100410 42
2010-12-07 07:27:25 51°13.79 2°55.649 0.1 354 -2.7 100410 42
2010-12-07 07:27:32 51°13.802 2°55.644 0.1 354 -2.7 100420 42
2010-12-07 07:27:37 51°13.809 2°55.639 0.1 357 -2.7 100420 42
2010-12-07 07:27:42 51°13.816 2°55.633 0.3 359 -2.7 100410 42
2010-12-07 07:27:47 51°13.823 2°55.627 0.1 1 -2.7 100410 42
2010-12-07 07:27:52 51°13.83 2°55.621 0.1 359 -2.7 100420 42
2010-12-07 07:27:56 51°13.836 2°55.616 0.1 346 -2.7 100420 42
2010-12-07 07:28:02 51°13.845 2°55.609 0.1 348 -2.7 100420 42
2010-12-07 07:28:07 51°13.853 2°55.604 -999 350 -2.7 100420 42
2010-12-07 07:28:12 51°13.861 2°55.598 -999 355 -2.7 100410 42
2010-12-07 07:28:17 51°13.869 2°55.594 -999 356 -2.7 100410 42
2010-12-07 07:28:22 51°13.877 2°55.587 -999 353 -2.7 100420 42
2010-12-07 07:28:27 51°13.885 2°55.581 -999 340 -2.7 100420 42
2010-12-07 07:28:32 51°13.893 2°55.575 -999 345 -2.7 100410 41
2010-12-07 07:28:37 51°13.901 2°55.57 -999 337 -2.7 100410 41
2010-12-07 07:28:42 51°13.909 2°55.565 0.1 340 -2.7 100420 42
2010-12-07 07:28:47 51°13.917 2°55.56 0.1 347 -2.7 100420 42
2010-12-07 07:28:53 51°13.927 2°55.554 0.1 347 -2.7 100410 42
2010-12-07 07:28:58 51°13.936 2°55.548 -999 350 -2.7 100410 42
2010-12-07 07:29:03 51°13.944 2°55.543 -999 354 -2.7 100410 42
2010-12-07 07:29:08 51°13.952 2°55.538 1.1 355 -2.7 100410 42
2010-12-07 07:29:14 51°13.962 2°55.531 1.5 357 -2.7 100420 42
2010-12-07 07:29:20 51°13.971 2°55.524 0.2 357 -2.7 100420 42
2010-12-07 07:29:25 51°13.98 2°55.519 0.1 354 -2.7 100420 42
2010-12-07 07:29:31 51°13.99 2°55.513 0.1 355 -2.7 100420 42
2010-12-07 07:29:36 51°13.998 2°55.508 0.1 355 -2.7 100410 43
2010-12-07 07:29:41 51°14.006 2°55.502 0.1 353 -2.7 100410 43
2010-12-07 07:29:45 51°14.013 2°55.497 -999 350 -2.7 100410 42
2010-12-07 07:29:51 51°14.023 2°55.492 -999 352 -2.7 100410 42
2010-12-07 07:29:56 51°14.031 2°55.486 -999 353 -2.7 100420 42
2010-12-07 07:30:01 51°14.039 2°55.48 -999 352 -2.7 100420 42
2010-12-07 07:30:05 51°14.046 2°55.476 -999 351 -2.7 100420 42
2010-12-07 07:30:11 51°14.055 2°55.469 -999 355 -2.7 100420 42
2010-12-07 07:30:16 51°14.064 2°55.463 -999 357 -2.6 100410 42
2010-12-07 07:30:21 51°14.071 2°55.457 -999 355 -2.6 100410 42
2010-12-07 07:30:26 51°14.08 2°55.451 -999 353 -2.7 100420 42
2010-12-07 07:30:31 51°14.088 2°55.446 -999 353 -2.7 100420 42
2010-12-07 07:30:36 51°14.096 2°55.44 -999 354 -2.6 100420 42
2010-12-07 07:30:41 51°14.104 2°55.434 -999 351 -2.6 100420 42
2010-12-07 07:30:46 51°14.112 2°55.428 0.1 354 -2.6 100410 42
2010-12-07 07:30:51 51°14.12 2°55.422 0.1 356 -2.6 100410 42
2010-12-07 07:30:56 51°14.128 2°55.416 -999 350 -2.7 100420 42
2010-12-07 07:31:01 51°14.136 2°55.41 -999 355 -2.7 100420 42
2010-12-07 07:31:06 51°14.144 2°55.405 -999 1 -2.7 100420 42
2010-12-07 07:31:11 51°14.152 2°55.399 -999 360 -2.7 100420 42
2010-12-07 07:31:16 51°14.16 2°55.392 -999 3 -2.6 100410 41
2010-12-07 07:31:21 51°14.168 2°55.386 -999 3 -2.6 100410 41
2010-12-07 07:31:25 51°14.174 2°55.381 -999 4 -2.7 100420 42
2010-12-07 07:31:31 51°14.183 2°55.373 -999 2 -2.7 100420 42
2010-12-07 07:31:36 51°14.191 2°55.366 0.1 357 -2.7 100420 42
2010-12-07 07:31:41 51°14.198 2°55.359 0.1 3 -2.7 100420 42
2010-12-07 07:31:45 51°14.204 2°55.353 0.1 1 -2.7 100410 42
2010-12-07 07:31:51 51°14.213 2°55.344 -999 4 -2.7 100410 42
2010-12-07 07:31:56 51°14.221 2°55.336 -999 3 -2.7 100410 42
2010-12-07 07:32:01 51°14.228 2°55.328 -999 13 -2.7 100410 42
2010-12-07 07:32:06 51°14.235 2°55.32 -999 9 -2.7 100410 42
2010-12-07 07:32:11 51°14.243 2°55.312 -999 9 -2.7 100410 42
2010-12-07 07:32:16 51°14.25 2°55.305 -999 10 -2.6 100410 42
2010-12-07 07:32:21 51°14.258 2°55.297 -999 357 -2.6 100410 42
2010-12-07 07:32:26 51°14.265 2°55.289 -999 359 -2.7 100410 42
2010-12-07 07:32:31 51°14.273 2°55.281 -999 357 -2.7 100410 42
2010-12-07 07:32:36 51°14.28 2°55.273 -999 358 -2.7 100410 42
2010-12-07 07:32:41 51°14.287 2°55.265 -999 359 -2.7 100410 42
2010-12-07 07:32:46 51°14.295 2°55.257 -999 357 -2.7 100420 42
2010-12-07 07:32:51 51°14.302 2°55.249 -999 355 -2.7 100420 42
2010-12-07 07:32:56 51°14.31 2°55.241 -999 -999 -2.7 100410 42
2010-12-07 07:33:01 51°14.317 2°55.233 -999 356 -2.7 100410 42
2010-12-07 07:33:05 51°14.323 2°55.226 -999 353 -2.7 100410 42
2010-12-07 07:33:11 51°14.332 2°55.215 -999 355 -2.7 100410 42
2010-12-07 07:33:16 51°14.34 2°55.207 -999 350 -2.7 100410 42
2010-12-07 07:33:21 51°14.348 2°55.199 -999 352 -2.7 100410 42
2010-12-07 07:33:25 51°14.354 2°55.192 -999 350 -2.6 100410 42
2010-12-07 07:33:30 51°14.362 2°55.184 -999 358 -2.6 100410 42
2010-12-07 07:33:35 51°14.37 2°55.176 -999 359 -2.6 100410 42
2010-12-07 07:33:40 51°14.379 2°55.168 -999 354 -2.6 100410 42
2010-12-07 07:33:45 51°14.387 2°55.16 -999 359 -2.6 100420 42
2010-12-07 07:33:50 51°14.395 2°55.151 -999 355 -2.6 100420 42
2010-12-07 07:33:55 51°14.403 2°55.143 -999 358 -2.7 100410 41
2010-12-07 07:34:00 51°14.412 2°55.134 -999 357 -2.7 100410 41
2010-12-07 07:34:05 51°14.421 2°55.125 -999 358 -2.6 100410 42
2010-12-07 07:34:10 51°14.43 2°55.116 -999 354 -2.6 100410 42
2010-12-07 07:34:14 51°14.436 2°55.109 -999 357 -2.6 100420 42
2010-12-07 07:34:20 51°14.447 2°55.099 -999 356 -2.6 100420 42
2010-12-07 07:34:25 51°14.456 2°55.089 -999 354 -2.7 100410 42
2010-12-07 07:34:29 51°14.463 2°55.081 -999 353 -2.7 100410 42
2010-12-07 07:34:34 51°14.472 2°55.071 -999 355 -2.6 100410 42
2010-12-07 07:34:41 51°14.485 2°55.058 -999 355 -2.6 100410 42
2010-12-07 07:34:45 51°14.493 2°55.05 -999 356 -2.6 100410 42
2010-12-07 07:34:50 51°14.503 2°55.04 -999 356 -2.6 100410 42
2010-12-07 07:34:55 51°14.512 2°55.029 -999 356 -2.6 100410 42
2010-12-07 07:35:00 51°14.522 2°55.019 -999 358 -2.6 100410 42
2010-12-07 07:35:05 51°14.531 2°55.008 -999 356 -2.6 100410 42
2010-12-07 07:35:10 51°14.54 2°54.998 -999 353 -2.6 100410 42
2010-12-07 07:35:14 51°14.548 2°54.989 -999 353 -2.6 100410 42
2010-12-07 07:35:19 51°14.557 2°54.977 -999 347 -2.6 100410 42
2010-12-07 07:35:24 51°14.566 2°54.966 -999 350 -2.6 100410 42
2010-12-07 07:35:29 51°14.575 2°54.954 -999 348 -2.6 100410 42
2010-12-07 07:35:34 51°14.584 2°54.942 -999 353 -2.6 100410 42
2010-12-07 07:35:39 51°14.593 2°54.929 -999 353 -2.6 100410 42
2010-12-07 07:35:44 51°14.602 2°54.916 -999 344 -2.6 100410 42
2010-12-07 07:35:49 51°14.611 2°54.903 -999 351 -2.6 100410 42
2010-12-07 07:35:53 51°14.618 2°54.892 -999 351 -2.6 100420 42
2010-12-07 07:35:58 51°14.627 2°54.879 -999 352 -2.6 100420 42
2010-12-07 07:36:03 51°14.637 2°54.866 -999 351 -2.6 100410 42
2010-12-07 07:36:08 51°14.646 2°54.853 -999 350 -2.6 100410 42
2010-12-07 07:36:13 51°14.655 2°54.84 -999 350 -2.5 100410 42
2010-12-07 07:36:17 51°14.662 2°54.828 -999 352 -2.5 100410 42
2010-12-07 07:36:22 51°14.669 2°54.813 -999 346 -2.5 100410 42
2010-12-07 07:36:27 51°14.676 2°54.796 -999 341 -2.5 100410 42
2010-12-07 07:36:32 51°14.682 2°54.778 -999 341 -2.5 100410 41
2010-12-07 07:36:37 51°14.687 2°54.759 -999 337 -2.5 100410 41
2010-12-07 07:36:42 51°14.691 2°54.74 -999 333 -2.5 100410 42
2010-12-07 07:36:47 51°14.694 2°54.721 -999 329 -2.5 100410 42
2010-12-07 07:36:52 51°14.696 2°54.7 -999 326 -2.5 100410 42
2010-12-07 07:36:57 51°14.697 2°54.68 -999 307 -2.5 100410 42
2010-12-07 07:37:02 51°14.697 2°54.659 -999 327 -2.5 100410 42
2010-12-07 07:37:07 51°14.696 2°54.638 -999 307 -2.5 100410 42
2010-12-07 07:37:12 51°14.694 2°54.617 -999 321 -2.5 100420 42
2010-12-07 07:37:17 51°14.692 2°54.596 -999 307 -2.5 100420 42
2010-12-07 07:37:22 51°14.687 2°54.575 -999 320 -2.5 100410 42
2010-12-07 07:37:27 51°14.682 2°54.555 -999 307 -2.5 100410 42
2010-12-07 07:37:32 51°14.676 2°54.535 -999 22 -2.5 100410 42
2010-12-07 07:37:37 51°14.67 2°54.515 -999 307 -2.5 100410 42
2010-12-07 07:37:42 51°14.662 2°54.495 -999 22 -2.4 100410 42
2010-12-07 07:37:47 51°14.653 2°54.477 -999 307 -2.4 100410 42
2010-12-07 07:37:52 51°14.644 2°54.458 -999 22 -2.4 100410 42
2010-12-07 07:37:57 51°14.634 2°54.44 -999 307 -2.4 100410 42
2010-12-07 07:38:02 51°14.624 2°54.423 -999 22 -2.4 100410 42
2010-12-07 07:38:07 51°14.614 2°54.405 -999 307 -2.4 100410 42
2010-12-07 07:38:12 51°14.603 2°54.387 -999 22 -2.4 100410 42
2010-12-07 07:38:17 51°14.592 2°54.368 -999 307 -2.4 100410 42
2010-12-07 07:38:22 51°14.582 2°54.348 -999 22 -2.4 100410 42
2010-12-07 07:38:27 51°14.571 2°54.329 -999 307 -2.4 100410 42
2010-12-07 07:38:32 51°14.562 2°54.308 -999 316 -2.4 100410 42
2010-12-07 07:38:37 51°14.552 2°54.288 -999 307 -2.4 100410 42
2010-12-07 07:38:42 51°14.542 2°54.267 -999 319 -2.3 100410 42
2010-12-07 07:38:47 51°14.533 2°54.246 -999 307 -2.3 100410 42
2010-12-07 07:38:52 51°14.523 2°54.225 -999 22 -2.3 100410 43
2010-12-07 07:38:57 51°14.514 2°54.203 -999 283 -2.3 100410 43
2010-12-07 07:39:02 51°14.505 2°54.181 -999 316 -2.3 100410 43
2010-12-07 07:39:07 51°14.495 2°54.16 -999 307 -2.3 100410 43
2010-12-07 07:39:12 51°14.486 2°54.138 -999 22 -2.3 100410 41
2010-12-07 07:39:17 51°14.476 2°54.116 -999 307 -2.3 100410 41
2010-12-07 07:39:22 51°14.467 2°54.093 -999 22 -2.3 100400 42
2010-12-07 07:39:27 51°14.458 2°54.072 -999 307 -2.3 100400 42
2010-12-07 07:39:32 51°14.448 2°54.05 -999 317 -2.3 100410 43
2010-12-07 07:39:37 51°14.439 2°54.028 -999 307 -2.3 100410 43
2010-12-07 07:39:42 51°14.429 2°54.006 -999 319 -2.3 100410 43
2010-12-07 07:39:47 51°14.419 2°53.984 -999 307 -2.3 100410 43
2010-12-07 07:39:52 51°14.41 2°53.962 -999 319 -2.3 100410 43
2010-12-07 07:39:57 51°14.4 2°53.94 -999 284 -2.3 100410 43
2010-12-07 07:40:01 51°14.392 2°53.923 -999 319 -2.3 100410 43
2010-12-07 07:40:07 51°14.381 2°53.897 -999 307 -2.3 100410 43
2010-12-07 07:40:12 51°14.371 2°53.874 -999 316 -2.3 100410 43
2010-12-07 07:40:17 51°14.361 2°53.853 -999 307 -2.3 100410 43
2010-12-07 07:40:22 51°14.351 2°53.831 -999 318 -2.3 100410 43
2010-12-07 07:40:27 51°14.341 2°53.809 -999 307 -2.3 100410 43
2010-12-07 07:40:32 51°14.332 2°53.787 -999 22 -2.3 100400 43
2010-12-07 07:40:37 51°14.322 2°53.765 -999 307 -2.3 100400 43
2010-12-07 07:40:42 51°14.312 2°53.742 -999 317 -2.3 100410 43
2010-12-07 07:40:47 51°14.302 2°53.72 -999 307 -2.3 100410 43
2010-12-07 07:40:52 51°14.293 2°53.698 -999 315 -2.3 100400 43
2010-12-07 07:40:57 51°14.282 2°53.676 -999 284 -2.3 100400 43
2010-12-07 07:41:02 51°14.273 2°53.654 -999 316 -2.3 100410 42
2010-12-07 07:41:07 51°14.262 2°53.632 -999 307 -2.3 100410 42
2010-12-07 07:41:12 51°14.253 2°53.609 -999 319 -2.3 100400 43
2010-12-07 07:41:17 51°14.243 2°53.587 -999 307 -2.3 100400 43
2010-12-07 07:41:22 51°14.233 2°53.565 -999 320 -2.3 100410 43
2010-12-07 07:41:27 51°14.223 2°53.543 -999 307 -2.3 100410 43
2010-12-07 07:41:32 51°14.213 2°53.52 -999 320 -2.3 100410 42
2010-12-07 07:41:37 51°14.203 2°53.498 -999 307 -2.3 100410 42
2010-12-07 07:41:42 51°14.193 2°53.476 -999 317 -2.3 100410 42
2010-12-07 07:41:47 51°14.183 2°53.453 -999 307 -2.3 100410 42
2010-12-07 07:41:52 51°14.173 2°53.431 -999 318 -2.3 100410 41
2010-12-07 07:41:57 51°14.163 2°53.409 -999 284 -2.3 100410 41
2010-12-07 07:42:02 51°14.153 2°53.386 -999 22 -2.3 100400 43
2010-12-07 07:42:07 51°14.143 2°53.364 -999 307 -2.3 100400 43
2010-12-07 07:42:12 51°14.133 2°53.341 -999 22 -2.3 100410 43
2010-12-07 07:42:17 51°14.123 2°53.319 -999 307 -2.3 100410 43
2010-12-07 07:42:22 51°14.113 2°53.297 -999 22 -2.3 100400 43
2010-12-07 07:42:27 51°14.103 2°53.274 -999 307 -2.3 100400 43
2010-12-07 07:42:32 51°14.093 2°53.252 -999 316 -2.3 100410 43
2010-12-07 07:42:37 51°14.083 2°53.23 -999 307 -2.3 100410 43
2010-12-07 07:42:42 51°14.073 2°53.207 -999 315 -2.3 100400 43
2010-12-07 07:42:47 51°14.063 2°53.185 -999 307 -2.3 100400 43
2010-12-07 07:42:52 51°14.053 2°53.162 -999 22 -2.2 100410 43
2010-12-07 07:42:57 51°14.043 2°53.139 -999 307 -2.2 100410 43
2010-12-07 07:43:02 51°14.034 2°53.117 -999 22 -2.2 100410 43
2010-12-07 07:43:07 51°14.024 2°53.094 -999 307 -2.2 100410 43
2010-12-07 07:43:12 51°14.015 2°53.07 -999 318 -2.2 100410 43
2010-12-07 07:43:17 51°14.005 2°53.047 -999 307 -2.2 100410 43
2010-12-07 07:43:22 51°13.996 2°53.023 -999 316 -2.2 100400 43
2010-12-07 07:43:27 51°13.987 2°53 -999 307 -2.2 100400 43
2010-12-07 07:43:32 51°13.978 2°52.977 -999 316 -2.2 100410 43
2010-12-07 07:43:37 51°13.969 2°52.953 -999 307 -2.2 100410 43
2010-12-07 07:43:42 51°13.96 2°52.929 -999 316 -2.1 100410 43
2010-12-07 07:43:47 51°13.951 2°52.905 -999 307 -2.1 100410 43
2010-12-07 07:43:52 51°13.941 2°52.882 -999 315 -2.1 100410 43
2010-12-07 07:43:57 51°13.932 2°52.858 -999 284 -2.1 100410 43
2010-12-07 07:44:02 51°13.923 2°52.835 -999 317 -2.1 100410 43
2010-12-07 07:44:07 51°13.914 2°52.812 -999 307 -2.1 100410 43
2010-12-07 07:44:12 51°13.905 2°52.788 -999 320 -2.1 100410 43
2010-12-07 07:44:17 51°13.896 2°52.764 -999 307 -2.1 100410 43
2010-12-07 07:44:22 51°13.886 2°52.741 -999 317 -2.1 100410 43
2010-12-07 07:44:27 51°13.877 2°52.717 -999 307 -2.1 100410 43
2010-12-07 07:44:32 51°13.868 2°52.693 -999 323 -2 100410 42
2010-12-07 07:44:37 51°13.859 2°52.67 -999 307 -2 100410 42
2010-12-07 07:44:42 51°13.85 2°52.646 -999 322 -2 100410 43
2010-12-07 07:44:47 51°13.841 2°52.622 -999 307 -2 100410 43
2010-12-07 07:44:52 51°13.832 2°52.599 -999 318 -2 100410 43
2010-12-07 07:44:57 51°13.823 2°52.575 -999 284 -2 100410 43
2010-12-07 07:45:02 51°13.813 2°52.552 -999 319 -2 100410 43
2010-12-07 07:45:07 51°13.804 2°52.528 -999 307 -2 100410 43
2010-12-07 07:45:12 51°13.795 2°52.504 -999 318 -2 100410 43
2010-12-07 07:45:17 51°13.785 2°52.481 -999 307 -2 100410 43
2010-12-07 07:45:22 51°13.777 2°52.456 -999 319 -1.9 100410 43
2010-12-07 07:45:27 51°13.768 2°52.432 -999 307 -1.9 100410 43
2010-12-07 07:45:32 51°13.76 2°52.408 -999 321 -1.9 100410 43
2010-12-07 07:45:37 51°13.752 2°52.383 -999 307 -1.9 100410 43
2010-12-07 07:45:42 51°13.743 2°52.359 -999 320 -1.9 100410 43
2010-12-07 07:45:47 51°13.736 2°52.334 -999 307 -1.9 100410 43
2010-12-07 07:45:52 51°13.727 2°52.31 -999 318 -1.9 100410 43
2010-12-07 07:45:57 51°13.72 2°52.285 -999 284 -1.9 100410 43
2010-12-07 07:46:02 51°13.711 2°52.26 -999 320 -1.9 100410 43
2010-12-07 07:46:07 51°13.704 2°52.235 -999 307 -1.9 100410 43
2010-12-07 07:46:12 51°13.696 2°52.21 -999 22 -1.9 100410 43
2010-12-07 07:46:17 51°13.688 2°52.185 -999 307 -1.9 100410 43
2010-12-07 07:46:22 51°13.68 2°52.161 -999 317 -1.9 100410 43
2010-12-07 07:46:27 51°13.672 2°52.136 -999 325 -1.9 100410 43
2010-12-07 07:46:32 51°13.664 2°52.112 -999 319 -1.9 100410 43
2010-12-07 07:46:37 51°13.656 2°52.087 -999 307 -1.9 100410 43
2010-12-07 07:46:42 51°13.648 2°52.062 -999 318 -1.8 100410 43
2010-12-07 07:46:47 51°13.64 2°52.038 -999 307 -1.8 100410 43
2010-12-07 07:46:52 51°13.632 2°52.013 -999 317 -1.8 100410 43
2010-12-07 07:46:57 51°13.623 2°51.989 -999 283 -1.8 100410 43
2010-12-07 07:47:02 51°13.616 2°51.965 -999 320 -1.8 100410 43
2010-12-07 07:47:07 51°13.607 2°51.94 -999 307 -1.8 100410 43
2010-12-07 07:47:12 51°13.599 2°51.915 -999 318 -1.8 100410 42
2010-12-07 07:47:17 51°13.591 2°51.891 -999 307 -1.8 100410 42
2010-12-07 07:47:22 51°13.583 2°51.867 -999 318 -1.8 100410 43
2010-12-07 07:47:27 51°13.575 2°51.844 -999 307 -1.8 100410 43
2010-12-07 07:47:32 51°13.568 2°51.822 -999 317 -1.8 100410 43
2010-12-07 07:47:37 51°13.56 2°51.8 -999 307 -1.8 100410 43
2010-12-07 07:47:42 51°13.554 2°51.779 -999 22 -1.8 100410 43
2010-12-07 07:47:47 51°13.547 2°51.759 -999 307 -1.8 100410 43
2010-12-07 07:47:52 51°13.541 2°51.739 -999 22 -1.8 100410 43
2010-12-07 07:47:57 51°13.535 2°51.721 -999 283 -1.8 100410 43
2010-12-07 07:48:02 51°13.529 2°51.702 -999 22 -1.8 100410 43
2010-12-07 07:48:07 51°13.523 2°51.685 -999 307 -1.8 100410 43
2010-12-07 07:48:12 51°13.518 2°51.669 -999 22 -1.8 100410 43
2010-12-07 07:48:17 51°13.512 2°51.653 -999 307 -1.8 100410 43
2010-12-07 07:48:22 51°13.507 2°51.637 -999 22 -1.8 100410 43
2010-12-07 07:48:27 51°13.502 2°51.623 -999 307 -1.8 100410 43
2010-12-07 07:48:32 51°13.497 2°51.609 -999 22 -1.8 100410 43
2010-12-07 07:48:37 51°13.492 2°51.596 -999 307 -1.8 100410 43
2010-12-07 07:48:42 51°13.487 2°51.582 -999 22 -1.8 100410 43
2010-12-07 07:48:47 51°13.482 2°51.57 -999 243 -1.8 100410 43
2010-12-07 07:48:52 51°13.477 2°51.557 -999 22 -1.8 100410 43
2010-12-07 07:48:57 51°13.472 2°51.545 -999 284 -1.8 100410 43
2010-12-07 07:49:01 51°13.467 2°51.535 -999 22 -1.8 100410 43
2010-12-07 07:49:07 51°13.462 2°51.521 -999 244 -1.8 100410 43
2010-12-07 07:49:12 51°13.457 2°51.509 -999 22 -1.8 100410 43
2010-12-07 07:49:17 51°13.453 2°51.497 -999 307 -1.8 100410 43
2010-12-07 07:49:22 51°13.449 2°51.486 -999 22 -1.8 100410 43
2010-12-07 07:49:27 51°13.445 2°51.475 -999 244 -1.8 100410 43
2010-12-07 07:49:32 51°13.441 2°51.465 -999 22 -1.8 100410 43
2010-12-07 07:49:37 51°13.438 2°51.455 -999 307 -1.8 100410 43
2010-12-07 07:49:42 51°13.435 2°51.446 -999 22 -1.7 100410 43
2010-12-07 07:49:47 51°13.431 2°51.438 -999 307 -1.7 100410 43
2010-12-07 07:49:53 51°13.428 2°51.43 -999 22 -1.7 100410 42
2010-12-07 07:49:57 51°13.426 2°51.425 -999 248 -1.7 100410 42
2010-12-07 07:50:01 51°13.425 2°51.42 -999 249 -1.7 100410 43
2010-12-07 07:50:07 51°13.423 2°51.415 -999 34 -1.7 100410 43
2010-12-07 07:50:12 51°13.421 2°51.411 -999 22 -1.7 100410 43
2010-12-07 07:50:17 51°13.42 2°51.406 -999 34 -1.7 100410 43
2010-12-07 07:50:22 51°13.418 2°51.402 -999 22 -1.7 100410 43
2010-12-07 07:50:27 51°13.417 2°51.398 -999 53 -1.7 100410 43
2010-12-07 07:50:32 51°13.415 2°51.394 -999 22 -1.7 100410 43
2010-12-07 07:50:37 51°13.413 2°51.39 -999 53 -1.7 100410 43
2010-12-07 07:50:42 51°13.412 2°51.386 -999 22 -1.7 100410 43
2010-12-07 07:50:47 51°13.41 2°51.381 -999 34 -1.7 100410 43
2010-12-07 07:50:52 51°13.409 2°51.377 -999 22 -1.7 100410 43
2010-12-07 07:50:57 51°13.407 2°51.373 -999 77 -1.7 100410 43
2010-12-07 07:51:01 51°13.406 2°51.37 -999 22 -1.7 100410 43
2010-12-07 07:51:07 51°13.404 2°51.365 -999 34 -1.7 100410 43
2010-12-07 07:51:12 51°13.402 2°51.362 -999 22 -1.7 100410 43
2010-12-07 07:51:17 51°13.401 2°51.357 -999 53 -1.7 100410 43
2010-12-07 07:51:21 51°13.399 2°51.354 -999 22 -1.7 100410 43
2010-12-07 07:51:27 51°13.398 2°51.349 -999 34 -1.7 100410 43
2010-12-07 07:51:32 51°13.396 2°51.346 -999 22 -1.7 100410 43
2010-12-07 07:51:37 51°13.395 2°51.341 -999 53 -1.7 100410 43
2010-12-07 07:51:42 51°13.393 2°51.337 -999 22 -1.7 100410 43
2010-12-07 07:51:47 51°13.392 2°51.333 -999 33 -1.7 100410 43
2010-12-07 07:51:52 51°13.39 2°51.329 -999 22 -1.7 100410 43
2010-12-07 07:51:57 51°13.388 2°51.326 -999 76 -1.7 100410 43
2010-12-07 07:52:02 51°13.387 2°51.322 -999 22 -1.7 100410 43
2010-12-07 07:52:07 51°13.385 2°51.318 -999 53 -1.7 100410 43
2010-12-07 07:52:12 51°13.384 2°51.314 -999 22 -1.7 100410 43
2010-12-07 07:52:17 51°13.382 2°51.31 -999 53 -1.7 100410 43
2010-12-07 07:52:22 51°13.38 2°51.306 -999 22 -1.7 100410 43
2010-12-07 07:52:27 51°13.379 2°51.302 -999 53 -1.7 100410 43
2010-12-07 07:52:32 51°13.377 2°51.298 -999 22 -1.7 100410 42
2010-12-07 07:52:37 51°13.376 2°51.294 -999 33 -1.7 100410 42
2010-12-07 07:52:42 51°13.374 2°51.291 -999 22 -1.7 100410 43
2010-12-07 07:52:47 51°13.373 2°51.287 -999 33 -1.7 100410 43
2010-12-07 07:52:52 51°13.371 2°51.283 -999 22 -1.7 100410 43
2010-12-07 07:52:57 51°13.37 2°51.279 -999 34 -1.7 100410 43
2010-12-07 07:53:01 51°13.369 2°51.276 -999 22 -1.6 100410 43
2010-12-07 07:53:07 51°13.367 2°51.272 -999 33 -1.6 100410 43
2010-12-07 07:53:12 51°13.365 2°51.268 -999 22 -1.6 100410 43
2010-12-07 07:53:17 51°13.363 2°51.264 -999 33 -1.6 100410 43
2010-12-07 07:53:22 51°13.362 2°51.26 -999 22 -1.6 100400 43
2010-12-07 07:53:27 51°13.361 2°51.257 -999 33 -1.6 100400 43
2010-12-07 07:53:32 51°13.359 2°51.253 -999 22 -1.6 100410 43
2010-12-07 07:53:37 51°13.357 2°51.249 -999 53 -1.6 100410 43
2010-12-07 07:53:42 51°13.356 2°51.246 -999 22 -1.6 100410 43
2010-12-07 07:53:47 51°13.354 2°51.242 -999 53 -1.6 100410 43
2010-12-07 07:53:52 51°13.353 2°51.238 -999 22 -1.6 100410 43
2010-12-07 07:53:57 51°13.351 2°51.234 -999 76 -1.6 100410 43
2010-12-07 07:54:01 51°13.35 2°51.231 -999 22 -1.6 100410 43
2010-12-07 07:54:07 51°13.349 2°51.226 -999 53 -1.6 100410 43
2010-12-07 07:54:13 51°13.347 2°51.223 -999 22 -1.6 100410 43
2010-12-07 07:54:17 51°13.345 2°51.22 -999 33 -1.6 100410 43
2010-12-07 07:54:21 51°13.344 2°51.217 -999 22 -1.6 100410 43
2010-12-07 07:54:27 51°13.343 2°51.212 -999 34 -1.6 100410 43
2010-12-07 07:54:32 51°13.341 2°51.208 -999 22 -1.6 100410 43
2010-12-07 07:54:37 51°13.34 2°51.204 -999 53 -1.6 100410 43
2010-12-07 07:54:42 51°13.338 2°51.201 -999 270 -1.6 100410 43
2010-12-07 07:54:47 51°13.337 2°51.197 -999 53 -1.6 100410 43
2010-12-07 07:54:52 51°13.336 2°51.193 -999 22 -1.6 100410 43
2010-12-07 07:54:57 51°13.334 2°51.19 -999 33 -1.6 100410 43
2010-12-07 07:55:02 51°13.333 2°51.186 -999 22 -1.6 100410 44
2010-12-07 07:55:07 51°13.331 2°51.183 -999 33 -1.6 100410 44
2010-12-07 07:55:12 51°13.329 2°51.179 -999 22 -1.6 100410 42
2010-12-07 07:55:17 51°13.328 2°51.175 -999 53 -1.6 100410 42
2010-12-07 07:55:22 51°13.327 2°51.171 -999 22 -1.6 100410 43
2010-12-07 07:55:27 51°13.325 2°51.168 -999 33 -1.6 100410 43
2010-12-07 07:55:32 51°13.324 2°51.164 -999 22 -1.6 100410 43
2010-12-07 07:55:37 51°13.322 2°51.161 -999 53 -1.6 100410 43
2010-12-07 07:55:42 51°13.32 2°51.157 -999 22 -1.6 100410 43
2010-12-07 07:55:47 51°13.319 2°51.153 -999 33 -1.6 100410 43
2010-12-07 07:55:52 51°13.318 2°51.15 -999 22 -1.6 100420 43
2010-12-07 07:55:57 51°13.316 2°51.146 -999 33 -1.6 100420 43
2010-12-07 07:56:02 51°13.314 2°51.142 -999 22 -1.6 100420 43
2010-12-07 07:56:07 51°13.313 2°51.138 -999 34 -1.6 100420 43
2010-12-07 07:56:12 51°13.311 2°51.134 -999 22 -1.7 100410 43
2010-12-07 07:56:17 51°13.309 2°51.13 -999 269 -1.7 100410 43
2010-12-07 07:56:22 51°13.306 2°51.125 -999 262 -1.7 100410 43
2010-12-07 07:56:27 51°13.304 2°51.121 -999 307 -1.7 100410 43
2010-12-07 07:56:32 51°13.3 2°51.117 -999 261 -1.7 100420 43
2010-12-07 07:56:37 51°13.297 2°51.112 -999 260 -1.7 100420 43
2010-12-07 07:56:41 51°13.294 2°51.109 -999 255 -1.6 100410 43
2010-12-07 07:56:47 51°13.29 2°51.104 -999 247 -1.6 100410 43
2010-12-07 07:56:52 51°13.285 2°51.101 -999 22 -1.6 100420 43
2010-12-07 07:56:57 51°13.281 2°51.097 -999 241 -1.6 100420 43
2010-12-07 07:57:02 51°13.276 2°51.095 -999 22 -1.7 100420 43
2010-12-07 07:57:07 51°13.272 2°51.092 -999 307 -1.7 100420 43
2010-12-07 07:57:12 51°13.266 2°51.091 -999 22 -1.7 100420 43
2010-12-07 07:57:17 51°13.26 2°51.089 -999 33 -1.7 100420 43
2010-12-07 07:57:22 51°13.254 2°51.088 -999 22 -1.6 100420 43
2010-12-07 07:57:27 51°13.248 2°51.086 -999 33 -1.6 100420 43
2010-12-07 07:57:32 51°13.242 2°51.085 -999 22 -1.7 100420 43
2010-12-07 07:57:37 51°13.235 2°51.084 -999 307 -1.7 100420 43
2010-12-07 07:57:41 51°13.229 2°51.084 -999 22 -1.6 100420 43
2010-12-07 07:57:47 51°13.221 2°51.083 -999 33 -1.6 100420 43
2010-12-07 07:57:52 51°13.214 2°51.083 -999 22 -1.6 100420 42
2010-12-07 07:57:57 51°13.206 2°51.083 -999 307 -1.6 100420 42
2010-12-07 07:58:01 51°13.2 2°51.084 -999 22 -1.7 100420 43
2010-12-07 07:58:07 51°13.19 2°51.084 -999 33 -1.7 100420 43
2010-12-07 07:58:12 51°13.182 2°51.084 -999 22 -1.6 100410 43
2010-12-07 07:58:17 51°13.175 2°51.084 -999 307 -1.6 100410 43
2010-12-07 07:58:22 51°13.167 2°51.085 -999 316 -1.6 100410 43
2010-12-07 07:58:27 51°13.159 2°51.086 -999 307 -1.6 100410 43
2010-12-07 07:58:32 51°13.152 2°51.086 -999 22 -1.7 100420 43
2010-12-07 07:58:37 51°13.144 2°51.086 -999 307 -1.7 100420 43
2010-12-07 07:58:42 51°13.137 2°51.087 -999 22 -1.7 100420 43
2010-12-07 07:58:47 51°13.129 2°51.087 -999 307 -1.7 100420 43
2010-12-07 07:58:52 51°13.122 2°51.086 -999 22 -1.6 100420 43
2010-12-07 07:58:57 51°13.115 2°51.085 -999 307 -1.6 100420 43
2010-12-07 07:59:02 51°13.107 2°51.084 -999 22 -1.6 100420 43
2010-12-07 07:59:07 51°13.1 2°51.083 -999 307 -1.6 100420 43
2010-12-07 07:59:12 51°13.093 2°51.081 -999 22 -1.6 100420 43
2010-12-07 07:59:17 51°13.086 2°51.079 -999 34 -1.6 100420 43
2010-12-07 07:59:22 51°13.08 2°51.076 -999 22 -1.6 100420 43
2010-12-07 07:59:27 51°13.073 2°51.074 -999 33 -1.6 100420 43
2010-12-07 07:59:32 51°13.066 2°51.07 -999 22 -1.6 100420 43
2010-12-07 07:59:37 51°13.06 2°51.068 -999 34 -1.6 100420 43
2010-12-07 07:59:42 51°13.053 2°51.063 -999 22 -1.6 100420 43
2010-12-07 07:59:47 51°13.047 2°51.06 -999 33 -1.6 100420 43
2010-12-07 07:59:52 51°13.041 2°51.056 -999 22 -1.6 100420 43
2010-12-07 07:59:57 51°13.035 2°51.053 -999 284 -1.6 100420 43
2010-12-07 08:00:02 51°13.029 2°51.048 -999 22 -1.6 100420 43
2010-12-07 08:00:07 51°13.023 2°51.044 -999 238 -1.6 100420 43
2010-12-07 08:00:12 51°13.017 2°51.04 -999 22 -1.6 100420 43
2010-12-07 08:00:17 51°13.011 2°51.036 -999 307 -1.6 100420 43
2010-12-07 08:00:22 51°13.006 2°51.033 -999 22 -1.6 100420 43
2010-12-07 08:00:27 51°13.001 2°51.029 -999 241 -1.6 100420 43
2010-12-07 08:00:32 51°12.995 2°51.025 -999 22 -1.6 100420 42
2010-12-07 08:00:37 51°12.99 2°51.02 -999 245 -1.6 100420 42
2010-12-07 08:00:42 51°12.985 2°51.016 -999 22 -1.6 100430 43
2010-12-07 08:00:47 51°12.979 2°51.012 -999 307 -1.6 100430 43
2010-12-07 08:00:52 51°12.974 2°51.008 -999 22 -1.6 100430 43
2010-12-07 08:00:57 51°12.969 2°51.003 -999 284 -1.6 100430 43
2010-12-07 08:01:02 51°12.964 2°50.999 -999 22 -1.6 100430 43
2010-12-07 08:01:07 51°12.959 2°50.995 -999 307 -1.6 100430 43
2010-12-07 08:01:12 51°12.954 2°50.99 -999 22 -1.6 100430 43
2010-12-07 08:01:17 51°12.949 2°50.985 -999 249 -1.6 100430 43
2010-12-07 08:01:22 51°12.944 2°50.981 -999 249 -1.6 100430 43
2010-12-07 08:01:27 51°12.94 2°50.976 -999 256 -1.6 100430 43
2010-12-07 08:01:32 51°12.935 2°50.971 -999 257 -1.6 100430 43
2010-12-07 08:01:37 51°12.93 2°50.966 -999 257 -1.6 100430 43
2010-12-07 08:01:42 51°12.926 2°50.961 -999 252 -1.6 100430 43
2010-12-07 08:01:47 51°12.921 2°50.955 -999 257 -1.6 100430 43
2010-12-07 08:01:52 51°12.917 2°50.949 -999 256 -1.6 100430 43
2010-12-07 08:01:57 51°12.913 2°50.944 -999 284 -1.6 100430 43
2010-12-07 08:02:02 51°12.909 2°50.938 -999 254 -1.6 100430 43
2010-12-07 08:02:07 51°12.904 2°50.932 -999 251 -1.6 100430 43
2010-12-07 08:02:12 51°12.9 2°50.927 -999 22 -1.6 100430 43
2010-12-07 08:02:17 51°12.896 2°50.921 -999 240 -1.6 100430 43
2010-12-07 08:02:22 51°12.892 2°50.915 -999 22 -1.6 100430 43
2010-12-07 08:02:27 51°12.888 2°50.91 -999 245 -1.6 100430 43
2010-12-07 08:02:32 51°12.884 2°50.903 -999 22 -1.6 100430 43
2010-12-07 08:02:37 51°12.88 2°50.898 -999 307 -1.6 100430 43
2010-12-07 08:02:42 51°12.876 2°50.891 -999 22 -1.6 100430 43
2010-12-07 08:02:47 51°12.872 2°50.886 -999 240 -1.6 100430 43
2010-12-07 08:02:52 51°12.867 2°50.88 -999 22 -1.6 100440 43
2010-12-07 08:02:57 51°12.863 2°50.875 -999 284 -1.6 100440 43
2010-12-07 08:03:01 51°12.859 2°50.87 -999 22 -1.6 100440 43
2010-12-07 08:03:07 51°12.854 2°50.863 -999 307 -1.6 100440 43
2010-12-07 08:03:13 51°12.849 2°50.855 -999 22 -1.6 100440 42
2010-12-07 08:03:17 51°12.845 2°50.851 -999 33 -1.6 100440 42
2010-12-07 08:03:21 51°12.842 2°50.846 -999 22 -1.6 100440 43
2010-12-07 08:03:27 51°12.836 2°50.839 -999 33 -1.6 100440 43
2010-12-07 08:03:32 51°12.833 2°50.833 -999 22 -1.6 100440 43
2010-12-07 08:03:37 51°12.828 2°50.826 -999 307 -1.6 100440 43
2010-12-07 08:03:42 51°12.824 2°50.819 -999 22 -1.6 100430 43
2010-12-07 08:03:47 51°12.821 2°50.812 -999 307 -1.6 100430 43
2010-12-07 08:03:52 51°12.817 2°50.805 -999 22 -1.6 100440 43
2010-12-07 08:03:57 51°12.813 2°50.798 -999 238 -1.6 100440 43
2010-12-07 08:04:01 51°12.81 2°50.793 -999 22 -1.6 100430 43
2010-12-07 08:04:07 51°12.805 2°50.784 -999 242 -1.6 100430 43
2010-12-07 08:04:12 51°12.802 2°50.776 -999 22 -1.6 100430 43
2010-12-07 08:04:17 51°12.798 2°50.769 -999 307 -1.6 100430 43
2010-12-07 08:04:21 51°12.796 2°50.763 -999 22 -1.6 100430 43
2010-12-07 08:04:27 51°12.792 2°50.754 -999 245 -1.6 100430 43
2010-12-07 08:04:32 51°12.789 2°50.746 -999 22 -1.6 100430 43
2010-12-07 08:04:37 51°12.785 2°50.738 -999 249 -1.6 100430 43
2010-12-07 08:04:42 51°12.782 2°50.73 -999 249 -1.6 100440 43
2010-12-07 08:04:47 51°12.779 2°50.723 -999 249 -1.6 100440 43
2010-12-07 08:04:52 51°12.775 2°50.715 -999 249 -1.7 100430 43
2010-12-07 08:04:57 51°12.772 2°50.706 -999 284 -1.7 100430 43
2010-12-07 08:05:02 51°12.769 2°50.698 -999 22 -1.6 100430 43
2010-12-07 08:05:07 51°12.766 2°50.69 -999 307 -1.6 100430 43
2010-12-07 08:05:12 51°12.763 2°50.681 -999 22 -1.7 100440 43
2010-12-07 08:05:17 51°12.76 2°50.672 -999 241 -1.7 100440 43
2010-12-07 08:05:22 51°12.757 2°50.664 -999 22 -1.7 100440 43
2010-12-07 08:05:27 51°12.754 2°50.656 -999 307 -1.7 100440 43
2010-12-07 08:05:32 51°12.751 2°50.647 -999 22 -1.7 100440 43
2010-12-07 08:05:37 51°12.747 2°50.639 -999 243 -1.7 100440 43
2010-12-07 08:05:42 51°12.744 2°50.631 -999 22 -1.7 100440 43
2010-12-07 08:05:47 51°12.741 2°50.622 -999 307 -1.7 100440 43
2010-12-07 08:05:52 51°12.738 2°50.614 -999 22 -1.7 100440 42
2010-12-07 08:05:57 51°12.734 2°50.606 -999 242 -1.7 100440 42
2010-12-07 08:06:02 51°12.731 2°50.598 -999 22 -1.7 100430 43
2010-12-07 08:06:07 51°12.728 2°50.589 -999 307 -1.7 100430 43
2010-12-07 08:06:12 51°12.725 2°50.58 -999 22 -1.7 100440 43
2010-12-07 08:06:17 51°12.721 2°50.572 -999 307 -1.7 100440 43
2010-12-07 08:06:22 51°12.718 2°50.564 -999 22 -1.7 100440 43
2010-12-07 08:06:27 51°12.715 2°50.555 -999 241 -1.7 100440 43
2010-12-07 08:06:32 51°12.711 2°50.547 -999 22 -1.7 100440 43
2010-12-07 08:06:37 51°12.708 2°50.539 -999 307 -1.7 100440 43
2010-12-07 08:06:42 51°12.704 2°50.531 -999 22 -1.7 100440 43
2010-12-07 08:06:47 51°12.701 2°50.523 -999 244 -1.7 100440 43
2010-12-07 08:06:52 51°12.697 2°50.514 -999 22 -1.7 100430 43
2010-12-07 08:06:57 51°12.693 2°50.506 -999 243 -1.7 100430 43
2010-12-07 08:07:02 51°12.69 2°50.498 -999 22 -1.7 100440 43
2010-12-07 08:07:07 51°12.686 2°50.49 -999 244 -1.7 100440 43
2010-12-07 08:07:12 51°12.683 2°50.482 -999 22 -1.7 100440 43
2010-12-07 08:07:17 51°12.679 2°50.474 -999 248 -1.7 100440 43
2010-12-07 08:07:22 51°12.676 2°50.466 -999 22 -1.7 100430 43
2010-12-07 08:07:27 51°12.672 2°50.457 -999 307 -1.7 100430 43
2010-12-07 08:07:32 51°12.669 2°50.449 -999 22 -1.7 100440 43
2010-12-07 08:07:37 51°12.665 2°50.441 -999 307 -1.7 100440 43
2010-12-07 08:07:41 51°12.662 2°50.435 -999 22 -1.8 100440 43
2010-12-07 08:07:47 51°12.658 2°50.424 -999 307 -1.8 100440 43
2010-12-07 08:07:52 51°12.654 2°50.417 -999 22 -1.8 100430 43
2010-12-07 08:07:57 51°12.651 2°50.409 -999 245 -1.8 100430 43
2010-12-07 08:08:02 51°12.647 2°50.401 -999 250 -1.7 100440 43
2010-12-07 08:08:07 51°12.644 2°50.392 -999 307 -1.7 100440 43
2010-12-07 08:08:12 51°12.64 2°50.384 -999 22 -1.8 100440 43
2010-12-07 08:08:17 51°12.637 2°50.376 -999 249 -1.8 100440 43
2010-12-07 08:08:22 51°12.633 2°50.368 -999 249 -1.8 100440 43
2010-12-07 08:08:27 51°12.63 2°50.36 -999 246 -1.8 100440 43
2010-12-07 08:08:32 51°12.626 2°50.352 -999 249 -1.8 100440 42
2010-12-07 08:08:37 51°12.622 2°50.344 -999 246 -1.8 100440 42
2010-12-07 08:08:42 51°12.618 2°50.336 -999 22 -1.8 100440 43
2010-12-07 08:08:47 51°12.614 2°50.328 -999 246 -1.8 100440 43
2010-12-07 08:08:52 51°12.611 2°50.32 -999 22 -1.8 100440 43
2010-12-07 08:08:57 51°12.607 2°50.312 -999 245 -1.8 100440 43
2010-12-07 08:09:02 51°12.603 2°50.304 -999 22 -1.8 100440 43
2010-12-07 08:09:07 51°12.6 2°50.296 -999 307 -1.8 100440 43
2010-12-07 08:09:12 51°12.596 2°50.288 -999 22 -1.8 100440 43
2010-12-07 08:09:17 51°12.593 2°50.279 -999 307 -1.8 100440 43
2010-12-07 08:09:22 51°12.589 2°50.272 -999 22 -1.8 100440 43
2010-12-07 08:09:27 51°12.585 2°50.264 -999 243 -1.8 100440 43
2010-12-07 08:09:32 51°12.581 2°50.256 -999 22 -1.8 100440 43
2010-12-07 08:09:37 51°12.578 2°50.248 -999 307 -1.8 100440 43
2010-12-07 08:09:41 51°12.575 2°50.242 -999 248 -1.8 100440 43
2010-12-07 08:09:47 51°12.571 2°50.232 -999 307 -1.8 100440 43
2010-12-07 08:09:52 51°12.567 2°50.224 -999 22 -1.8 100440 43
2010-12-07 08:09:57 51°12.563 2°50.216 -999 242 -1.8 100440 43
2010-12-07 08:10:02 51°12.559 2°50.208 -999 22 -1.8 100440 43
2010-12-07 08:10:07 51°12.556 2°50.199 -999 308 -1.8 100440 43
2010-12-07 08:10:12 51°12.552 2°50.192 -999 22 -1.8 100440 43
2010-12-07 08:10:17 51°12.549 2°50.183 -999 242 -1.8 100440 43
2010-12-07 08:10:22 51°12.545 2°50.176 -999 22 -1.8 100440 43
2010-12-07 08:10:27 51°12.541 2°50.167 -999 307 -1.8 100440 43
2010-12-07 08:10:32 51°12.537 2°50.16 -999 22 -1.8 100440 43
2010-12-07 08:10:37 51°12.534 2°50.151 -999 245 -1.8 100440 43
2010-12-07 08:10:41 51°12.531 2°50.145 -999 248 -1.9 100440 43
2010-12-07 08:10:47 51°12.527 2°50.136 -999 248 -1.9 100440 43
2010-12-07 08:10:52 51°12.523 2°50.128 -999 22 -1.9 100430 43
2010-12-07 08:10:57 51°12.519 2°50.12 -999 307 -1.9 100430 43
2010-12-07 08:11:01 51°12.516 2°50.113 -999 22 -1.9 100440 43
2010-12-07 08:11:07 51°12.512 2°50.104 -999 244 -1.9 100440 43
2010-12-07 08:11:12 51°12.507 2°50.096 -999 22 -1.9 100440 42
2010-12-07 08:11:17 51°12.504 2°50.088 -999 307 -1.9 100440 42
2010-12-07 08:11:22 51°12.5 2°50.081 -999 22 -1.9 100440 43
2010-12-07 08:11:27 51°12.497 2°50.072 -999 247 -1.9 100440 43
2010-12-07 08:11:32 51°12.493 2°50.064 -999 22 -1.9 100440 43
2010-12-07 08:11:37 51°12.489 2°50.056 -999 307 -1.9 100440 43
2010-12-07 08:11:41 51°12.486 2°50.05 -999 22 -1.9 100440 43
2010-12-07 08:11:47 51°12.482 2°50.04 -999 243 -1.9 100440 43
2010-12-07 08:11:52 51°12.478 2°50.033 -999 22 -2 100440 43
2010-12-07 08:11:57 51°12.474 2°50.025 -999 284 -2 100440 43
2010-12-07 08:12:01 51°12.471 2°50.019 -999 22 -2 100440 43
2010-12-07 08:12:07 51°12.467 2°50.009 -999 307 -2 100440 43
2010-12-07 08:12:12 51°12.463 2°50.001 -999 249 -2 100440 43
2010-12-07 08:12:17 51°12.459 2°49.993 -999 248 -2 100440 43
2010-12-07 08:12:22 51°12.456 2°49.986 -999 248 -2 100430 43
2010-12-07 08:12:27 51°12.452 2°49.978 -999 307 -2 100430 43
2010-12-07 08:12:32 51°12.448 2°49.97 -999 22 -2 100430 43
2010-12-07 08:12:37 51°12.445 2°49.962 -999 248 -2 100430 43
2010-12-07 08:12:41 51°12.442 2°49.955 -999 248 -2 100440 43
2010-12-07 08:12:47 51°12.437 2°49.946 -999 246 -2 100440 43
2010-12-07 08:12:52 51°12.434 2°49.938 -999 22 -2 100440 43
2010-12-07 08:12:57 51°12.43 2°49.931 -999 248 -2 100440 43
2010-12-07 08:13:01 51°12.427 2°49.924 -999 248 -2 100430 43
2010-12-07 08:13:07 51°12.423 2°49.915 -999 246 -2 100430 43
2010-12-07 08:13:12 51°12.419 2°49.907 -999 22 -2.1 100440 43
2010-12-07 08:13:17 51°12.414 2°49.899 -999 246 -2.1 100440 43
2010-12-07 08:13:22 51°12.411 2°49.892 -999 22 -2.1 100440 43
2010-12-07 08:13:27 51°12.408 2°49.884 -999 249 -2.1 100440 43
2010-12-07 08:13:32 51°12.405 2°49.875 -999 249 -2.1 100440 43
2010-12-07 08:13:37 51°12.402 2°49.867 -999 307 -2.1 100440 43
2010-12-07 08:13:42 51°12.398 2°49.858 -999 249 -2.1 100440 43
2010-12-07 08:13:47 51°12.395 2°49.85 -999 254 -2.1 100440 43
2010-12-07 08:13:52 51°12.392 2°49.842 -999 254 -2.1 100430 42
2010-12-07 08:13:57 51°12.389 2°49.834 -999 307 -2.1 100430 42
2010-12-07 08:14:01 51°12.387 2°49.827 -999 252 -2.1 100440 43
2010-12-07 08:14:07 51°12.383 2°49.817 -999 307 -2.1 100440 43
2010-12-07 08:14:12 51°12.38 2°49.808 -999 253 -2.1 100430 43
2010-12-07 08:14:17 51°12.377 2°49.8 -999 252 -2.1 100430 43
2010-12-07 08:14:22 51°12.374 2°49.792 -999 253 -2.1 100430 43
2010-12-07 08:14:27 51°12.371 2°49.784 -999 307 -2.1 100430 43
2010-12-07 08:14:32 51°12.367 2°49.776 -999 22 -2.1 100430 43
2010-12-07 08:14:37 51°12.365 2°49.767 -999 307 -2.1 100430 43
2010-12-07 08:14:42 51°12.361 2°49.759 -999 248 -2.1 100430 43
2010-12-07 08:14:47 51°12.358 2°49.751 -999 307 -2.1 100430 43
2010-12-07 08:14:52 51°12.356 2°49.742 -999 248 -2.1 100430 43
2010-12-07 08:14:57 51°12.352 2°49.734 -999 248 -2.1 100430 43
2010-12-07 08:15:02 51°12.35 2°49.725 -999 248 -2.1 100440 43
2010-12-07 08:15:07 51°12.347 2°49.717 -999 248 -2.1 100440 43
2010-12-07 08:15:12 51°12.345 2°49.708 -999 22 -2.1 100430 43
2010-12-07 08:15:17 51°12.342 2°49.7 -999 307 -2.1 100430 43
2010-12-07 08:15:21 51°12.339 2°49.693 -999 248 -2.1 100430 43
2010-12-07 08:15:27 51°12.336 2°49.683 -999 249 -2.1 100430 43
2010-12-07 08:15:32 51°12.333 2°49.674 -999 249 -2.1 100430 43
2010-12-07 08:15:37 51°12.329 2°49.667 -999 307 -2.1 100430 43
2010-12-07 08:15:42 51°12.326 2°49.658 -999 249 -2.1 100430 43
2010-12-07 08:15:47 51°12.324 2°49.65 -999 249 -2.1 100430 43
2010-12-07 08:15:52 51°12.321 2°49.642 -999 250 -2.1 100430 43
2010-12-07 08:15:57 51°12.318 2°49.633 -999 307 -2.1 100430 43
2010-12-07 08:16:01 51°12.315 2°49.627 -999 255 -2.1 100430 43
2010-12-07 08:16:07 51°12.312 2°49.617 -999 255 -2.1 100430 43
2010-12-07 08:16:12 51°12.309 2°49.608 -999 255 -2.1 100430 43
2010-12-07 08:16:17 51°12.306 2°49.6 -999 307 -2.1 100430 43
2010-12-07 08:16:21 51°12.304 2°49.593 -999 253 -2.1 100430 43
2010-12-07 08:16:27 51°12.3 2°49.583 -999 255 -2.1 100430 43
2010-12-07 08:16:32 51°12.297 2°49.575 -999 254 -2.1 100430 42
2010-12-07 08:16:37 51°12.294 2°49.566 -999 254 -2.1 100430 42
2010-12-07 08:16:42 51°12.291 2°49.558 -999 255 -2.1 100430 43
2010-12-07 08:16:47 51°12.288 2°49.55 -999 307 -2.1 100430 43
2010-12-07 08:16:52 51°12.285 2°49.541 -999 255 -2.1 100430 43
2010-12-07 08:16:57 51°12.282 2°49.533 -999 264 -2.1 100430 43
2010-12-07 08:17:01 51°12.28 2°49.527 -999 263 -2.1 100430 43
2010-12-07 08:17:07 51°12.276 2°49.517 -999 307 -2.1 100430 43
2010-12-07 08:17:12 51°12.273 2°49.508 -999 261 -2.1 100430 43
2010-12-07 08:17:17 51°12.27 2°49.5 -999 259 -2.1 100430 43
2010-12-07 08:17:21 51°12.268 2°49.494 -999 259 -2.1 100430 43
2010-12-07 08:17:27 51°12.264 2°49.483 -999 260 -2.1 100430 43
2010-12-07 08:17:32 51°12.261 2°49.475 -999 260 -2.1 100430 43
2010-12-07 08:17:37 51°12.258 2°49.467 -999 259 -2.1 100430 43
2010-12-07 08:17:42 51°12.255 2°49.459 -999 259 -2.1 100430 43
2010-12-07 08:17:47 51°12.252 2°49.45 -999 255 -2.1 100430 43
2010-12-07 08:17:52 51°12.249 2°49.442 -999 255 -2.1 100430 43
2010-12-07 08:17:57 51°12.246 2°49.434 -999 307 -2.1 100430 43
2010-12-07 08:18:01 51°12.243 2°49.427 -999 254 -2.1 100430 43
2010-12-07 08:18:07 51°12.24 2°49.418 -999 255 -2.1 100430 43
2010-12-07 08:18:12 51°12.237 2°49.41 -999 255 -2.1 100430 43
2010-12-07 08:18:17 51°12.234 2°49.401 -999 307 -2.1 100430 43
2010-12-07 08:18:21 51°12.231 2°49.394 -999 256 -2.1 100430 43
2010-12-07 08:18:27 51°12.228 2°49.383 -999 258 -2.1 100430 43
2010-12-07 08:18:32 51°12.225 2°49.375 -999 258 -2.1 100430 43
2010-12-07 08:18:37 51°12.222 2°49.367 -999 255 -2.1 100430 43
2010-12-07 08:18:42 51°12.219 2°49.358 -999 253 -2.1 100430 43
2010-12-07 08:18:47 51°12.216 2°49.35 -999 307 -2.1 100430 43
2010-12-07 08:18:52 51°12.213 2°49.342 -999 254 -2.1 100430 43
2010-12-07 08:18:57 51°12.21 2°49.333 -999 284 -2.1 100430 43
2010-12-07 08:19:01 51°12.208 2°49.327 -999 255 -2.1 100430 43
2010-12-07 08:19:07 51°12.204 2°49.317 -999 307 -2.1 100430 43
2010-12-07 08:19:12 51°12.201 2°49.308 -999 255 -2.1 100430 42
2010-12-07 08:19:17 51°12.198 2°49.301 -999 255 -2.1 100430 42
2010-12-07 08:19:21 51°12.196 2°49.293 -999 255 -2.1 100430 43
2010-12-07 08:19:27 51°12.192 2°49.284 -999 254 -2.1 100430 43
2010-12-07 08:19:32 51°12.189 2°49.275 -999 254 -2.1 100430 43
2010-12-07 08:19:37 51°12.186 2°49.267 -999 259 -2.1 100430 43
2010-12-07 08:19:42 51°12.183 2°49.259 -999 256 -2.1 100430 43
2010-12-07 08:19:47 51°12.18 2°49.25 -999 307 -2.1 100430 43
2010-12-07 08:19:52 51°12.177 2°49.242 -999 256 -2.1 100430 43
2010-12-07 08:19:57 51°12.174 2°49.234 -999 258 -2.1 100430 43
2010-12-07 08:20:02 51°12.171 2°49.225 -999 260 -2.1 100430 43
2010-12-07 08:20:07 51°12.168 2°49.217 -999 261 -2.1 100430 43
2010-12-07 08:20:12 51°12.165 2°49.209 -999 261 -2.1 100430 43
2010-12-07 08:20:17 51°12.161 2°49.201 -999 259 -2.1 100430 43
2010-12-07 08:20:22 51°12.159 2°49.192 -999 258 -2.1 100440 43
2010-12-07 08:20:27 51°12.155 2°49.184 -999 257 -2.1 100440 43
2010-12-07 08:20:32 51°12.152 2°49.176 -999 256 -2.1 100430 43
2010-12-07 08:20:37 51°12.15 2°49.167 -999 255 -2.1 100430 43
2010-12-07 08:20:42 51°12.147 2°49.159 -999 255 -2.1 100430 43
2010-12-07 08:20:47 51°12.144 2°49.151 -999 307 -2.1 100430 43
2010-12-07 08:20:52 51°12.14 2°49.142 -999 255 -2.1 100430 43
2010-12-07 08:20:57 51°12.138 2°49.134 -999 284 -2.1 100430 43
2010-12-07 08:21:02 51°12.135 2°49.125 -999 251 -2.1 100430 43
2010-12-07 08:21:07 51°12.131 2°49.117 -999 307 -2.1 100430 43
2010-12-07 08:21:12 51°12.129 2°49.109 -999 261 -2.1 100430 43
2010-12-07 08:21:17 51°12.125 2°49.101 -999 260 -2.1 100430 43
2010-12-07 08:21:22 51°12.122 2°49.092 -999 260 -2.1 100430 43
2010-12-07 08:21:27 51°12.119 2°49.084 -999 307 -2.1 100430 43
2010-12-07 08:21:32 51°12.116 2°49.075 -999 257 -2.1 100430 43
2010-12-07 08:21:37 51°12.113 2°49.067 -999 255 -2.1 100430 43
2010-12-07 08:21:42 51°12.11 2°49.059 -999 255 -2.2 100430 43
2010-12-07 08:21:47 51°12.107 2°49.05 -999 257 -2.2 100430 43
2010-12-07 08:21:52 51°12.104 2°49.042 -999 256 -2.2 100430 42
2010-12-07 08:21:57 51°12.101 2°49.034 -999 307 -2.2 100430 42
2010-12-07 08:22:01 51°12.099 2°49.027 -999 257 -2.2 100430 43
2010-12-07 08:22:07 51°12.095 2°49.017 -999 259 -2.2 100430 43
2010-12-07 08:22:12 51°12.092 2°49.009 -999 257 -2.2 100430 43
2010-12-07 08:22:17 51°12.089 2°49.001 -999 259 -2.2 100430 43
2010-12-07 08:22:22 51°12.086 2°48.993 -999 260 -2.2 100430 43
2010-12-07 08:22:27 51°12.083 2°48.984 -999 258 -2.2 100430 43
2010-12-07 08:22:32 51°12.08 2°48.976 -999 257 -2.2 100430 43
2010-12-07 08:22:37 51°12.077 2°48.967 -999 260 -2.2 100430 43
2010-12-07 08:22:42 51°12.074 2°48.959 -999 260 -2.2 100430 43
2010-12-07 08:22:47 51°12.07 2°48.951 -999 260 -2.2 100430 43
2010-12-07 08:22:52 51°12.068 2°48.943 -999 260 -2.2 100430 43
2010-12-07 08:22:57 51°12.064 2°48.935 -999 307 -2.2 100430 43
2010-12-07 08:23:01 51°12.062 2°48.928 -999 259 -2.2 100430 43
2010-12-07 08:23:07 51°12.058 2°48.918 -999 307 -2.2 100430 43
2010-12-07 08:23:12 51°12.055 2°48.91 -999 254 -2.2 100440 43
2010-12-07 08:23:17 51°12.052 2°48.902 -999 307 -2.2 100440 43
2010-12-07 08:23:21 51°12.05 2°48.895 -999 253 -2.2 100440 43
2010-12-07 08:23:27 51°12.046 2°48.885 -999 307 -2.2 100440 43
2010-12-07 08:23:32 51°12.043 2°48.877 -999 250 -2.2 100430 43
2010-12-07 08:23:37 51°12.04 2°48.869 -999 254 -2.2 100430 43
2010-12-07 08:23:42 51°12.037 2°48.861 -999 254 -2.2 100440 43
2010-12-07 08:23:47 51°12.034 2°48.852 -999 307 -2.2 100440 43
2010-12-07 08:23:52 51°12.03 2°48.844 -999 262 -2.2 100430 43
2010-12-07 08:23:57 51°12.027 2°48.836 -999 262 -2.2 100430 43
2010-12-07 08:24:01 51°12.025 2°48.83 -999 262 -2.2 100430 43
2010-12-07 08:24:07 51°12.021 2°48.819 -999 254 -2.2 100430 43
2010-12-07 08:24:12 51°12.018 2°48.811 -999 259 -2.2 100430 43
2010-12-07 08:24:17 51°12.015 2°48.803 -999 262 -2.2 100430 43
2010-12-07 08:24:21 51°12.012 2°48.797 -999 262 -2.2 100430 43
2010-12-07 08:24:27 51°12.009 2°48.786 -999 258 -2.2 100430 43
2010-12-07 08:24:32 51°12.006 2°48.778 -999 254 -2.2 100440 42
2010-12-07 08:24:37 51°12.003 2°48.77 -999 255 -2.2 100440 42
2010-12-07 08:24:42 51°12 2°48.762 -999 257 -2.1 100430 43
2010-12-07 08:24:47 51°11.997 2°48.753 -999 256 -2.1 100430 43
2010-12-07 08:24:52 51°11.994 2°48.745 -999 254 -2.1 100430 43
2010-12-07 08:24:57 51°11.991 2°48.737 -999 284 -2.1 100430 43
2010-12-07 08:25:02 51°11.987 2°48.729 -999 253 -2.1 100430 43
2010-12-07 08:25:07 51°11.984 2°48.721 -999 257 -2.1 100430 43
2010-12-07 08:25:12 51°11.981 2°48.712 -999 257 -2.1 100430 43
2010-12-07 08:25:17 51°11.978 2°48.704 -999 256 -2.1 100430 43
2010-12-07 08:25:22 51°11.975 2°48.696 -999 258 -2.1 100440 43
2010-12-07 08:25:27 51°11.972 2°48.688 -999 307 -2.1 100440 43
2010-12-07 08:25:32 51°11.969 2°48.68 -999 261 -2.2 100430 43
2010-12-07 08:25:37 51°11.966 2°48.672 -999 258 -2.2 100430 43
2010-12-07 08:25:42 51°11.963 2°48.663 -999 259 -2.1 100430 43
2010-12-07 08:25:47 51°11.96 2°48.655 -999 307 -2.1 100430 43
2010-12-07 08:25:52 51°11.957 2°48.647 -999 261 -2.1 100430 43
2010-12-07 08:25:57 51°11.953 2°48.639 -999 255 -2.1 100430 43
2010-12-07 08:26:01 51°11.951 2°48.632 -999 256 -2.1 100430 43
2010-12-07 08:26:07 51°11.948 2°48.622 -999 258 -2.1 100430 43
2010-12-07 08:26:12 51°11.945 2°48.614 -999 259 -2.2 100430 43
2010-12-07 08:26:17 51°11.942 2°48.605 -999 259 -2.2 100430 43
2010-12-07 08:26:21 51°11.939 2°48.599 -999 259 -2.2 100430 43
2010-12-07 08:26:27 51°11.935 2°48.589 -999 259 -2.2 100430 43
2010-12-07 08:26:32 51°11.932 2°48.581 -999 259 -2.2 100430 43
2010-12-07 08:26:37 51°11.929 2°48.573 -999 259 -2.2 100430 43
2010-12-07 08:26:42 51°11.926 2°48.564 -999 261 -2.2 100430 43
2010-12-07 08:26:47 51°11.923 2°48.556 -999 257 -2.2 100430 43
2010-12-07 08:26:52 51°11.92 2°48.548 -999 257 -2.2 100430 43
2010-12-07 08:26:57 51°11.917 2°48.539 -999 284 -2.2 100430 43
2010-12-07 08:27:01 51°11.914 2°48.533 -999 261 -2.2 100430 43
2010-12-07 08:27:07 51°11.911 2°48.523 -999 261 -2.2 100430 43
2010-12-07 08:27:12 51°11.908 2°48.514 -999 261 -2.2 100430 42
2010-12-07 08:27:17 51°11.905 2°48.506 -999 307 -2.2 100430 42
2010-12-07 08:27:21 51°11.903 2°48.499 -999 269 -2.2 100430 43
2010-12-07 08:27:27 51°11.9 2°48.489 -999 269 -2.2 100430 43
2010-12-07 08:27:32 51°11.897 2°48.48 -999 270 -2.2 100430 43
2010-12-07 08:27:37 51°11.894 2°48.472 -999 269 -2.2 100430 43
2010-12-07 08:27:42 51°11.892 2°48.463 -999 270 -2.2 100430 43
2010-12-07 08:27:47 51°11.889 2°48.455 -999 55 -2.2 100430 43
2010-12-07 08:27:52 51°11.886 2°48.446 -999 23 -2.2 100430 43
2010-12-07 08:27:57 51°11.884 2°48.437 -999 307 -2.2 100430 43
2010-12-07 08:28:01 51°11.882 2°48.431 -999 267 -2.2 100430 43
2010-12-07 08:28:07 51°11.879 2°48.42 -999 58 -2.2 100430 43
2010-12-07 08:28:12 51°11.876 2°48.412 -999 23 -2.2 100430 43
2010-12-07 08:28:17 51°11.874 2°48.403 -999 33 -2.2 100430 43
2010-12-07 08:28:21 51°11.872 2°48.396 -999 22 -2.2 100430 43
2010-12-07 08:28:27 51°11.87 2°48.385 -999 270 -2.2 100430 43
2010-12-07 08:28:32 51°11.867 2°48.376 -999 270 -2.2 100430 43
2010-12-07 08:28:37 51°11.865 2°48.368 -999 36 -2.2 100430 43
2010-12-07 08:28:42 51°11.863 2°48.359 -999 24 -2.2 100430 43
2010-12-07 08:28:47 51°11.861 2°48.35 -999 34 -2.2 100430 43
2010-12-07 08:28:52 51°11.859 2°48.341 -999 22 -2.2 100430 43
2010-12-07 08:28:57 51°11.857 2°48.332 -999 33 -2.2 100430 43
2010-12-07 08:29:01 51°11.856 2°48.325 -999 22 -2.2 100430 43
2010-12-07 08:29:07 51°11.853 2°48.314 -999 270 -2.2 100430 43
2010-12-07 08:29:12 51°11.851 2°48.305 -999 270 -2.2 100430 43
2010-12-07 08:29:17 51°11.849 2°48.296 -999 55 -2.2 100430 43
2010-12-07 08:29:21 51°11.848 2°48.289 -999 23 -2.2 100430 43
2010-12-07 08:29:27 51°11.846 2°48.279 -999 33 -2.2 100430 43
2010-12-07 08:29:32 51°11.844 2°48.269 -999 22 -2.2 100430 43
2010-12-07 08:29:37 51°11.842 2°48.261 -999 33 -2.2 100430 43
2010-12-07 08:29:42 51°11.841 2°48.252 -999 22 -2.2 100440 43
2010-12-07 08:29:47 51°11.839 2°48.243 -999 53 -2.2 100440 43
2010-12-07 08:29:52 51°11.838 2°48.234 -999 22 -2.2 100440 42
2010-12-07 08:29:57 51°11.836 2°48.225 -999 33 -2.2 100440 42
2010-12-07 08:30:02 51°11.834 2°48.216 -999 22 -2.2 100430 43
2010-12-07 08:30:07 51°11.832 2°48.207 -999 53 -2.2 100430 43
2010-12-07 08:30:12 51°11.831 2°48.198 -999 22 -2.3 100430 43
2010-12-07 08:30:17 51°11.829 2°48.189 -999 33 -2.3 100430 43
2010-12-07 08:30:22 51°11.827 2°48.18 -999 22 -2.3 100440 43
2010-12-07 08:30:27 51°11.826 2°48.171 -999 53 -2.3 100440 43
2010-12-07 08:30:32 51°11.824 2°48.162 -999 22 -2.2 100430 43
2010-12-07 08:30:37 51°11.822 2°48.153 -999 33 -2.2 100430 43
2010-12-07 08:30:42 51°11.821 2°48.144 -999 22 -2.2 100440 43
2010-12-07 08:30:47 51°11.819 2°48.136 -999 52 -2.2 100440 43
2010-12-07 08:30:52 51°11.817 2°48.126 -999 22 -2.2 100430 43
2010-12-07 08:30:57 51°11.815 2°48.118 -999 269 -2.2 100430 43
2010-12-07 08:31:01 51°11.814 2°48.11 -999 269 -2.2 100440 43
2010-12-07 08:31:07 51°11.811 2°48.1 -999 35 -2.2 100440 43
2010-12-07 08:31:12 51°11.81 2°48.091 -999 23 -2.3 100440 43
2010-12-07 08:31:17 51°11.808 2°48.082 -999 53 -2.3 100440 43
2010-12-07 08:31:21 51°11.807 2°48.075 -999 22 -2.2 100440 43
2010-12-07 08:31:27 51°11.805 2°48.064 -999 33 -2.2 100440 43
2010-12-07 08:31:32 51°11.804 2°48.055 -999 22 -2.3 100430 43
2010-12-07 08:31:37 51°11.802 2°48.046 -999 33 -2.3 100430 43
2010-12-07 08:31:42 51°11.801 2°48.037 -999 22 -2.3 100440 43
2010-12-07 08:31:47 51°11.8 2°48.027 -999 33 -2.3 100440 43
2010-12-07 08:31:52 51°11.798 2°48.018 -999 22 -2.3 100440 43
2010-12-07 08:31:57 51°11.797 2°48.009 -999 33 -2.3 100440 43
2010-12-07 08:32:01 51°11.796 2°48.002 -999 22 -2.3 100440 43
2010-12-07 08:32:07 51°11.795 2°47.991 -999 53 -2.3 100440 43
2010-12-07 08:32:12 51°11.794 2°47.982 -999 22 -2.3 100440 43
2010-12-07 08:32:17 51°11.792 2°47.973 -999 53 -2.3 100440 43
2010-12-07 08:32:21 51°11.791 2°47.966 -999 22 -2.3 100440 43
2010-12-07 08:32:27 51°11.79 2°47.955 -999 53 -2.3 100440 43
2010-12-07 08:32:32 51°11.789 2°47.946 -999 22 -2.3 100440 42
2010-12-07 08:32:37 51°11.788 2°47.936 -999 33 -2.3 100440 42
2010-12-07 08:32:42 51°11.786 2°47.927 -999 22 -2.3 100430 43
2010-12-07 08:32:47 51°11.785 2°47.918 -999 53 -2.3 100430 43
2010-12-07 08:32:52 51°11.784 2°47.909 -999 22 -2.2 100440 43
2010-12-07 08:32:57 51°11.783 2°47.9 -999 33 -2.2 100440 43
2010-12-07 08:33:02 51°11.782 2°47.891 -999 22 -2.3 100440 43
2010-12-07 08:33:07 51°11.781 2°47.882 -999 33 -2.3 100440 43
2010-12-07 08:33:12 51°11.779 2°47.873 -999 22 -2.2 100440 43
2010-12-07 08:33:17 51°11.778 2°47.864 -999 33 -2.2 100440 43
2010-12-07 08:33:22 51°11.777 2°47.855 -999 22 -2.2 100440 43
2010-12-07 08:33:27 51°11.776 2°47.846 -999 33 -2.2 100440 43
2010-12-07 08:33:32 51°11.775 2°47.837 -999 22 -2.2 100440 43
2010-12-07 08:33:37 51°11.774 2°47.827 -999 33 -2.2 100440 43
2010-12-07 08:33:42 51°11.772 2°47.818 -999 22 -2.2 100440 43
2010-12-07 08:33:47 51°11.771 2°47.809 -999 33 -2.2 100440 43
2010-12-07 08:33:52 51°11.77 2°47.8 -999 22 -2.2 100440 43
2010-12-07 08:33:57 51°11.769 2°47.791 -999 33 -2.2 100440 43
2010-12-07 08:34:01 51°11.768 2°47.784 -999 22 -2.2 100440 43
2010-12-07 08:34:07 51°11.766 2°47.773 -999 33 -2.2 100440 43
2010-12-07 08:34:12 51°11.765 2°47.763 -999 22 -2.2 100440 43
2010-12-07 08:34:17 51°11.764 2°47.754 -999 53 -2.2 100440 43
2010-12-07 08:34:21 51°11.763 2°47.747 -999 22 -2.2 100440 43
2010-12-07 08:34:27 51°11.761 2°47.736 -999 52 -2.2 100440 43
2010-12-07 08:34:32 51°11.76 2°47.727 -999 22 -2.2 100440 43
2010-12-07 08:34:37 51°11.759 2°47.718 -999 44 -2.2 100440 43
2010-12-07 08:34:42 51°11.758 2°47.709 -999 44 -2.2 100440 43
2010-12-07 08:34:47 51°11.757 2°47.699 -999 43 -2.2 100440 43
2010-12-07 08:34:52 51°11.757 2°47.69 -999 37 -2.2 100440 43
2010-12-07 08:34:57 51°11.756 2°47.682 -999 36 -2.2 100440 43
2010-12-07 08:35:02 51°11.756 2°47.672 -999 31 -2.2 100440 43
2010-12-07 08:35:07 51°11.755 2°47.663 -999 42 -2.2 100440 43
2010-12-07 08:35:12 51°11.756 2°47.654 -999 34 -2.1 100440 42
2010-12-07 08:35:17 51°11.756 2°47.645 -999 34 -2.1 100440 42
2010-12-07 08:35:22 51°11.756 2°47.636 -999 34 -2.1 100440 43
2010-12-07 08:35:27 51°11.756 2°47.628 -999 38 -2.1 100440 43
2010-12-07 08:35:32 51°11.756 2°47.619 -999 38 -2.1 100440 43
2010-12-07 08:35:37 51°11.757 2°47.611 -999 35 -2.1 100440 43
2010-12-07 08:35:42 51°11.757 2°47.602 -999 36 -2.1 100440 43
2010-12-07 08:35:47 51°11.757 2°47.594 -999 38 -2.1 100440 43
2010-12-07 08:35:52 51°11.757 2°47.586 -999 38 -2.1 100440 43
2010-12-07 08:35:57 51°11.757 2°47.578 -999 34 -2.1 100440 43
2010-12-07 08:36:02 51°11.757 2°47.57 -999 39 -2.1 100440 43
2010-12-07 08:36:07 51°11.758 2°47.562 -999 44 -2.1 100440 43
2010-12-07 08:36:12 51°11.757 2°47.555 -999 43 -2.1 100440 43
2010-12-07 08:36:17 51°11.758 2°47.547 -999 41 -2.1 100440 43
2010-12-07 08:36:21 51°11.758 2°47.541 -999 42 -2 100440 43
2010-12-07 08:36:27 51°11.758 2°47.532 -999 41 -2 100440 43
2010-12-07 08:36:32 51°11.758 2°47.524 -999 42 -2 100440 43
2010-12-07 08:36:37 51°11.758 2°47.517 -999 42 -2 100440 43
2010-12-07 08:36:42 51°11.758 2°47.509 -999 44 -2 100440 43
2010-12-07 08:36:47 51°11.758 2°47.502 -999 53 -2 100440 43
2010-12-07 08:36:52 51°11.758 2°47.494 -999 22 -2 100440 43
2010-12-07 08:36:57 51°11.758 2°47.487 -999 44 -2 100440 43
2010-12-07 08:37:01 51°11.758 2°47.481 -999 44 -2 100440 43
2010-12-07 08:37:07 51°11.757 2°47.472 -999 53 -2 100440 43
2010-12-07 08:37:12 51°11.757 2°47.465 -999 22 -2 100450 43
2010-12-07 08:37:17 51°11.757 2°47.458 -999 44 -2 100450 43
2010-12-07 08:37:22 51°11.757 2°47.451 -999 44 -2 100440 43
2010-12-07 08:37:27 51°11.756 2°47.444 -999 53 -2 100440 43
2010-12-07 08:37:32 51°11.756 2°47.436 -999 22 -2 100440 43
2010-12-07 08:37:37 51°11.756 2°47.429 -999 33 -2 100440 43
2010-12-07 08:37:42 51°11.756 2°47.422 -999 22 -2 100450 43
2010-12-07 08:37:47 51°11.756 2°47.415 -999 33 -2 100450 43
2010-12-07 08:37:52 51°11.756 2°47.408 -999 22 -2 100450 42
2010-12-07 08:37:57 51°11.756 2°47.401 -999 33 -2 100450 42
2010-12-07 08:38:01 51°11.757 2°47.395 -999 22 -2 100450 43
2010-12-07 08:38:07 51°11.756 2°47.386 -999 33 -2 100450 43
2010-12-07 08:38:12 51°11.757 2°47.379 -999 22 -2 100450 43
2010-12-07 08:38:17 51°11.757 2°47.372 -999 45 -2 100450 43
2010-12-07 08:38:21 51°11.757 2°47.367 -999 44 -2 100450 43
2010-12-07 08:38:27 51°11.757 2°47.358 -999 44 -2 100450 43
2010-12-07 08:38:32 51°11.757 2°47.351 -999 44 -2 100450 43
2010-12-07 08:38:37 51°11.758 2°47.344 -999 44 -2 100450 43
2010-12-07 08:38:42 51°11.758 2°47.337 -999 44 -2 100450 43
2010-12-07 08:38:47 51°11.759 2°47.33 -999 43 -2 100450 43
2010-12-07 08:38:52 51°11.759 2°47.323 -999 43 -2 100450 43
2010-12-07 08:38:57 51°11.76 2°47.316 -999 38 -2 100450 43
2010-12-07 08:39:02 51°11.76 2°47.31 -999 39 -2 100450 43
2010-12-07 08:39:07 51°11.761 2°47.303 -999 39 -2 100450 43
2010-12-07 08:39:12 51°11.762 2°47.296 -999 34 -2 100450 43
2010-12-07 08:39:17 51°11.763 2°47.29 -999 36 -2 100450 43
2010-12-07 08:39:22 51°11.764 2°47.283 -999 35 -2 100450 43
2010-12-07 08:39:27 51°11.765 2°47.277 -999 37 -2 100450 43
2010-12-07 08:39:32 51°11.766 2°47.271 -999 37 -2 100450 43
2010-12-07 08:39:37 51°11.768 2°47.264 -999 35 -2 100450 43
2010-12-07 08:39:42 51°11.769 2°47.258 -999 35 -2 100450 43
2010-12-07 08:39:47 51°11.771 2°47.252 -999 32 -2 100450 43
2010-12-07 08:39:52 51°11.773 2°47.246 -999 31 -2 100450 43
2010-12-07 08:39:57 51°11.774 2°47.24 -999 38 -2 100450 43
2010-12-07 08:40:01 51°11.775 2°47.235 -999 34 -2 100450 43
2010-12-07 08:40:07 51°11.777 2°47.229 -999 33 -2 100450 43
2010-12-07 08:40:12 51°11.779 2°47.223 -999 31 -2 100450 43
2010-12-07 08:40:17 51°11.78 2°47.218 -999 33 -2 100450 43
2010-12-07 08:40:21 51°11.781 2°47.214 -999 33 -2 100450 43
2010-12-07 08:40:27 51°11.784 2°47.207 -999 33 -2 100450 43
2010-12-07 08:40:32 51°11.785 2°47.202 -999 27 -2 100450 42
2010-12-07 08:40:37 51°11.787 2°47.197 -999 30 -2 100450 42
2010-12-07 08:40:42 51°11.788 2°47.192 -999 32 -1.9 100450 43
2010-12-07 08:40:47 51°11.79 2°47.187 -999 34 -1.9 100450 43
2010-12-07 08:40:52 51°11.792 2°47.182 -999 32 -1.9 100450 43
2010-12-07 08:40:57 51°11.794 2°47.177 -999 22 -1.9 100450 43
2010-12-07 08:41:02 51°11.798 2°47.171 -999 20 -1.9 100460 43
2010-12-07 08:41:07 51°11.802 2°47.167 -999 14 -1.9 100460 43
2010-12-07 08:41:12 51°11.807 2°47.163 -999 12 -1.9 100460 43
2010-12-07 08:41:17 51°11.811 2°47.161 -999 5 -1.9 100460 43
2010-12-07 08:41:22 51°11.817 2°47.16 -999 5 -1.9 100460 43
2010-12-07 08:41:27 51°11.822 2°47.161 -999 2 -1.9 100460 43
2010-12-07 08:41:32 51°11.827 2°47.163 2.5 -999 -1.9 100460 43
2010-12-07 08:41:37 51°11.832 2°47.166 2.6 -999 -1.9 100460 43
2010-12-07 08:41:42 51°11.835 2°47.172 3.5 357 -1.9 100450 43
2010-12-07 08:41:47 51°11.839 2°47.178 3 354 -1.9 100450 43
2010-12-07 08:41:52 51°11.842 2°47.184 3.9 349 -1.9 100450 45
2010-12-07 08:41:57 51°11.843 2°47.19 3.9 350 -1.9 100450 45
2010-12-07 08:42:01 51°11.844 2°47.195 3.4 351 -1.9 100450 42
2010-12-07 08:42:07 51°11.846 2°47.202 3.2 347 -1.9 100450 42
2010-12-07 08:42:12 51°11.847 2°47.207 3.5 349 -1.9 100450 45
2010-12-07 08:42:17 51°11.848 2°47.212 2.6 347 -1.9 100450 45
2010-12-07 08:42:21 51°11.848 2°47.215 2.8 350 -1.9 100450 42
2010-12-07 08:42:27 51°11.848 2°47.22 3.4 350 -1.9 100450 42
2010-12-07 08:42:32 51°11.849 2°47.224 3.5 349 -1.9 100450 43
2010-12-07 08:42:37 51°11.849 2°47.228 1.6 347 -1.9 100450 43
2010-12-07 08:42:42 51°11.849 2°47.231 2 348 -1.9 100450 45
2010-12-07 08:42:47 51°11.849 2°47.234 2.4 348 -1.9 100450 45
2010-12-07 08:42:52 51°11.849 2°47.238 1.9 348 -1.9 100450 45
2010-12-07 08:42:57 51°11.849 2°47.24 2.9 348 -1.9 100450 45
2010-12-07 08:43:01 51°11.848 2°47.242 2.2 349 -1.9 100450 42
2010-12-07 08:43:07 51°11.848 2°47.246 2.5 348 -1.9 100450 42
2010-12-07 08:43:12 51°11.847 2°47.248 2.3 346 -1.9 100450 41
2010-12-07 08:43:17 51°11.847 2°47.25 2.3 347 -1.9 100450 41
2010-12-07 08:43:21 51°11.847 2°47.252 1.5 350 -1.9 100450 42
2010-12-07 08:43:27 51°11.847 2°47.254 2.5 347 -1.9 100450 42
2010-12-07 08:43:32 51°11.846 2°47.256 2.5 344 -2 100450 44
2010-12-07 08:43:37 51°11.846 2°47.257 2.2 344 -2 100450 44
2010-12-07 08:43:42 51°11.845 2°47.259 2.2 345 -2 100460 42
2010-12-07 08:43:47 51°11.844 2°47.261 2.1 345 -2 100460 42